Date,TemperatureHighF,TemperatureAvgF,TemperatureLowF,DewpointHighF,DewpointAvgF,DewpointLowF,HumidityHigh,HumidityAvg,HumidityLow,PressureMaxIn,PressureMinIn,WindSpeedMaxMPH,WindSpeedAvgMPH,GustSpeedMaxMPH,PrecipitationSumIn
2013-1-3,10.0,10.0,10.0,-99.9,-99.9,-99.9,0,0,100,30.36,30.36,23,23,0,0.00
2013-1-4,18.0,18.0,18.0,-99.9,-99.9,-99.9,0,0,100,29.97,29.97,29,29,0,0.00
2013-1-5,30.0,30.0,30.0,-99.9,-99.9,-99.9,0,0,100,29.88,29.88,26,26,0,0.00
2013-1-6,28.0,28.0,28.0,-99.9,-99.9,-99.9,0,0,100,29.99,29.99,31,31,0,0.00
2013-1-7,33.0,33.0,33.0,-99.9,-99.9,-99.9,0,0,100,30.04,30.04,0,-999,0,0.00
2013-1-9,36.0,35.4,35.0,-99.9,-99.9,-99.9,0,0,100,30.20,29.77,38,34,0,0.00
2013-1-15,18.0,18.0,18.0,-99.9,-99.9,-99.9,0,0,100,30.35,30.35,25,25,0,0.00
2013-4-15,36.0,36.0,36.0,-99.9,-99.9,-99.9,0,0,100,29.73,29.73,23,23,0,0.00
2013-4-16,37.0,34.5,32.0,-99.9,-99.9,-99.9,0,0,100,30.24,29.94,13,12,0,0.00
2013-4-19,38.0,37.5,37.0,-99.9,-99.9,-99.9,0,0,100,29.78,29.75,39,36,0,0.00
2013-4-20,31.0,30.0,29.0,-99.9,-99.9,-99.9,0,0,100,30.11,30.02,24,22,0,0.00
2013-4-22,40.0,40.0,40.0,-99.9,-99.9,-99.9,0,0,100,30.22,30.22,10,10,0,0.00
2013-4-24,36.0,35.0,34.0,-99.9,-99.9,-99.9,0,0,100,29.91,29.88,11,10,0,0.00
2013-4-26,55.0,55.0,55.0,-99.9,-99.9,-99.9,0,0,100,30.42,30.42,11,11,0,0.00
2013-4-30,63.0,54.1,42.0,-99.9,-99.9,-99.9,0,0,100,29.73,29.58,26,16,0,0.00
2013-5-1,54.0,47.3,41.0,-99.9,-99.9,-99.9,0,0,100,30.28,30.00,21,16,0,0.00
2013-5-2,43.0,40.8,40.0,-99.9,-99.9,-99.9,0,0,100,30.32,30.26,29,28,0,0.00
2013-5-3,42.0,40.2,40.0,-99.9,-99.9,-99.9,0,0,100,30.20,30.04,29,18,0,0.00
2013-5-4,71.0,51.6,39.0,-99.9,-99.9,-99.9,0,0,100,30.22,30.10,22,15,0,0.00
2013-5-5,40.0,36.8,35.0,-99.9,-99.9,-99.9,0,0,100,30.27,30.21,17,4,0,0.00
2013-5-6,41.0,35.4,33.0,-99.9,-99.9,-99.9,0,0,100,30.20,30.12,11,6,0,0.00
2013-5-7,50.0,45.9,42.0,-99.9,-99.9,-99.9,0,0,100,30.17,30.09,14,8,0,0.00
2013-5-8,67.0,59.1,52.0,-99.9,-99.9,-99.9,0,0,100,30.06,30.01,11,7,0,0.00
2013-5-9,77.0,69.7,61.0,-99.9,-99.9,-99.9,0,0,100,30.03,29.95,18,10,0,0.00
2013-5-20,41.0,40.3,40.0,-99.9,-99.9,-99.9,0,0,100,29.76,29.67,44,38,0,0.00
2013-5-21,44.0,41.6,39.0,-99.9,-99.9,-99.9,0,0,100,29.81,29.70,33,14,0,0.00
2013-5-22,55.0,44.1,39.0,-99.9,-99.9,-99.9,0,0,100,29.86,29.80,28,22,0,0.00
2013-5-23,50.0,44.3,40.0,-99.9,-99.9,-99.9,0,0,100,30.22,29.89,31,20,0,0.00
2013-5-24,49.0,46.4,43.0,-99.9,-99.9,-99.9,0,0,100,30.48,30.39,15,12,0,0.00
2013-5-25,49.0,43.5,42.0,-99.9,-99.9,-99.9,0,0,100,30.48,30.36,14,10,0,0.00
2013-5-27,47.0,43.9,40.0,-99.9,-99.9,-99.9,0,0,100,30.17,30.02,33,11,0,0.00
2013-5-28,52.0,49.3,44.0,-99.9,-99.9,-99.9,0,0,100,29.96,29.91,22,18,0,0.00
2013-5-29,49.0,45.9,42.0,-99.9,-99.9,-99.9,0,0,100,29.99,29.81,22,11,0,0.00
2013-5-30,79.0,74.6,72.0,-99.9,-99.9,-99.9,0,0,100,30.00,29.97,29,13,0,0.00
2013-5-31,74.0,67.0,48.0,-99.9,-99.9,-99.9,0,0,100,29.87,29.79,29,19,0,0.00
2013-6-1,62.0,50.9,42.0,-99.9,-99.9,-99.9,0,0,100,29.76,29.68,16,5,0,0.00
2013-6-2,59.0,55.2,45.0,-99.9,-99.9,-99.9,0,0,100,29.94,29.65,20,10,0,0.00
2013-6-3,63.0,55.2,48.0,-99.9,-99.9,-99.9,0,0,100,30.13,30.04,16,9,0,0.00
2013-6-4,62.0,51.8,45.0,-99.9,-99.9,-99.9,0,0,100,30.26,30.13,30,9,0,0.00
2013-6-5,53.0,50.0,43.0,-99.9,-99.9,-99.9,0,0,100,30.31,30.23,18,8,0,0.00
2013-6-6,47.0,43.5,38.0,-99.9,-99.9,-99.9,0,0,100,30.15,30.13,21,14,0,0.00
2013-6-7,46.0,43.7,40.0,-99.9,-99.9,-99.9,0,0,100,30.13,30.03,7,2,0,0.00
2013-6-8,61.0,53.4,41.0,-99.9,-99.9,-99.9,0,0,100,30.06,29.98,15,7,0,0.00
2013-6-9,79.0,72.6,68.0,-99.9,-99.9,-99.9,0,0,100,29.94,29.92,17,13,0,0.00
2013-6-10,72.0,60.6,53.0,-99.9,-99.9,-99.9,0,0,100,29.88,29.82,24,15,0,0.00
2013-6-11,63.0,56.9,46.0,-99.9,-99.9,-99.9,0,0,100,29.94,29.87,13,6,0,0.00
2013-6-12,68.0,60.5,54.0,-99.9,-99.9,-99.9,0,0,100,29.94,29.91,9,3,0,0.00
2013-6-13,54.0,53.6,53.0,-99.9,-99.9,-99.9,0,0,100,29.82,29.81,8,8,0,0.00
2013-6-18,65.0,55.1,46.0,-99.9,-99.9,-99.9,0,0,100,30.23,30.14,9,5,0,0.00
2013-6-19,60.0,50.1,42.0,-99.9,-99.9,-99.9,0,0,100,30.15,30.06,14,6,0,0.00
2013-6-20,62.0,57.6,54.0,-99.9,-99.9,-99.9,0,0,100,30.23,30.13,16,9,0,0.00
2013-6-24,82.0,78.4,69.0,-99.9,-99.9,-99.9,0,0,100,29.98,29.89,18,11,0,0.00
2013-6-25,85.0,75.2,67.0,-99.9,-99.9,-99.9,0,0,100,29.98,29.89,22,14,0,0.00
2013-6-26,82.0,75.5,69.0,-99.9,-99.9,-99.9,0,0,100,29.94,29.80,20,9,0,0.00
2013-6-27,74.0,70.9,64.0,-99.9,-99.9,-99.9,0,0,100,29.81,29.72,18,7,0,0.00
2013-6-28,71.0,65.6,63.0,-99.9,-99.9,-99.9,0,0,100,29.71,29.67,15,6,0,0.00
2013-6-29,59.0,52.2,49.0,-99.9,-99.9,-99.9,0,0,100,29.83,29.81,8,4,0,0.00
2013-7-5,85.0,82.4,78.0,-99.9,-99.9,-99.9,0,0,100,30.01,29.96,16,13,0,0.00
2013-7-6,85.0,73.7,63.0,-99.9,-99.9,-99.9,0,0,100,30.05,29.95,28,18,0,0.00
2013-7-7,83.0,73.1,66.0,-99.9,-99.9,-99.9,0,0,100,30.06,29.99,23,12,0,0.00
2013-7-8,75.0,71.8,67.0,-99.9,-99.9,-99.9,0,0,100,30.09,29.99,15,8,0,0.00
2013-7-9,73.0,66.7,63.0,-99.9,-99.9,-99.9,0,0,100,30.07,29.82,20,8,0,0.00
2013-7-10,67.0,60.4,51.0,-99.9,-99.9,-99.9,0,0,100,29.92,29.74,30,19,0,0.00
2013-7-11,74.0,67.3,63.0,-99.9,-99.9,-99.9,0,0,100,30.12,29.97,23,17,0,0.00
2013-7-12,68.0,63.7,60.0,-99.9,-99.9,-99.9,0,0,100,30.22,30.13,17,11,0,0.00
2013-7-13,74.0,65.8,58.0,-99.9,-99.9,-99.9,0,0,100,30.24,30.12,17,12,0,0.00
2013-7-14,62.0,58.4,56.0,-99.9,-99.9,-99.9,0,0,100,30.22,30.17,9,4,0,0.00
2013-7-15,85.0,65.4,49.0,-99.9,-99.9,-99.9,0,0,100,30.32,30.28,15,11,0,0.00
2013-7-16,85.0,78.0,72.0,-99.9,-99.9,-99.9,0,0,100,30.35,30.29,10,7,0,0.00
2013-7-17,86.0,81.7,80.0,-99.9,-99.9,-99.9,0,0,100,30.35,30.29,13,10,0,0.00
2013-7-18,87.0,80.5,78.0,-99.9,-99.9,-99.9,0,0,100,30.21,29.99,16,9,0,0.00
2013-7-19,80.0,74.7,68.0,-99.9,-99.9,-99.9,0,0,100,29.91,29.61,30,23,0,0.00
2013-7-20,62.0,54.1,47.0,-99.9,-99.9,-99.9,0,0,100,30.00,29.88,17,14,0,0.00
2013-7-21,61.0,57.0,54.0,-99.9,-99.9,-99.9,0,0,100,30.01,29.96,21,15,0,0.00
2013-7-22,62.0,59.0,56.0,-99.9,-99.9,-99.9,0,0,100,29.66,29.64,28,25,0,0.00
2013-7-23,71.0,61.7,56.0,-99.9,-99.9,-99.9,0,0,100,29.94,29.61,51,27,0,0.00
2013-7-24,68.0,64.8,63.0,-99.9,-99.9,-99.9,0,0,100,30.07,29.99,25,16,0,0.00
2013-7-25,70.0,66.8,65.0,-99.9,-99.9,-99.9,0,0,100,30.04,29.96,29,10,0,0.00
2013-7-26,67.0,64.8,62.0,-99.9,-99.9,-99.9,0,0,100,29.91,29.82,36,15,0,0.00
2013-8-7,72.0,71.3,71.0,-99.9,-99.9,-99.9,0,0,100,29.94,29.94,12,9,0,0.00
2013-8-8,60.0,57.7,52.0,-99.9,-99.9,-99.9,0,0,100,30.02,30.00,12,8,0,0.00
2013-8-9,68.0,62.2,58.0,-99.9,-99.9,-99.9,0,0,100,29.96,29.86,27,15,0,0.00
2013-8-10,72.0,69.0,65.0,-99.9,-99.9,-99.9,0,0,100,30.12,30.05,15,13,0,0.00
2013-8-12,62.0,59.5,56.0,-99.9,-99.9,-99.9,0,0,100,29.99,29.90,9,6,0,0.00
2013-8-13,67.0,60.0,57.0,-99.9,-99.9,-99.9,0,0,100,30.19,30.11,15,6,0,0.00
2013-8-14,58.0,56.3,54.0,-99.9,-99.9,-99.9,0,0,100,30.19,30.16,16,7,0,0.00
2013-8-15,65.0,55.0,51.0,-99.9,-99.9,-99.9,0,0,100,30.07,30.04,22,12,0,0.00
2013-8-16,77.0,67.4,68.0,-99.9,-99.9,-99.9,0,0,100,30.18,30.15,9,7,0,0.00
2013-8-17,69.0,68.3,66.0,-99.9,-99.9,-99.9,0,0,100,30.25,30.20,16,13,0,0.00
2013-8-19,86.0,66.7,65.0,-99.9,-99.9,-99.9,0,0,100,29.92,29.86,18,10,0,0.00
2013-8-20,72.0,66.8,64.0,-99.9,-99.9,-99.9,0,0,100,29.90,29.87,16,11,0,0.00
2013-8-21,76.0,70.1,66.0,-99.9,-99.9,-99.9,0,0,100,29.98,29.87,32,17,0,0.00
2013-8-22,71.0,69.2,68.0,-99.9,-99.9,-99.9,0,0,100,30.11,29.94,14,11,0,0.00
2013-8-23,67.0,66.5,66.0,-99.9,-99.9,-99.9,0,0,100,30.20,30.19,11,10,0,0.00
2013-8-24,65.0,65.0,65.0,-99.9,-99.9,-99.9,0,0,100,30.24,30.24,17,17,0,0.00
2013-8-25,84.0,75.2,69.0,-99.9,-99.9,-99.9,0,0,100,29.92,29.89,21,17,0,0.00
2013-8-26,63.0,61.3,60.0,-99.9,-99.9,-99.9,0,0,100,29.96,29.95,5,4,0,0.00
2013-8-27,74.0,67.6,64.0,-99.9,-99.9,-99.9,0,0,100,29.92,29.87,8,4,0,0.00
2013-8-30,69.0,67.9,66.0,-99.9,-99.9,-99.9,0,0,100,29.81,29.73,25,12,0,0.00
2013-8-31,83.0,68.7,59.0,-99.9,-99.9,-99.9,0,0,100,29.91,29.72,13,7,0,0.00
2013-9-1,73.0,68.2,64.0,-99.9,-99.9,-99.9,0,0,100,29.87,29.67,22,10,0,0.00
2013-9-2,55.0,54.6,54.0,-99.9,-99.9,-99.9,0,0,100,29.94,29.94,23,23,0,0.00
2013-9-3,68.0,60.2,56.0,-99.9,-99.9,-99.9,0,0,100,29.99,29.88,48,19,0,0.00
2013-9-4,83.0,72.6,64.0,-99.9,-99.9,-99.9,0,0,100,30.14,29.98,21,13,0,0.00
2013-9-5,62.0,57.6,54.0,-99.9,-99.9,-99.9,0,0,100,30.29,30.18,23,15,0,0.00
2013-9-6,74.0,61.6,49.0,-99.9,-99.9,-99.9,0,0,100,30.19,29.91,96,19,0,0.00
2013-9-7,73.0,66.2,63.0,-99.9,-99.9,-99.9,0,0,100,29.89,29.84,9,6,0,0.00
2013-9-8,70.0,65.1,62.0,-99.9,-99.9,-99.9,0,0,100,30.13,29.99,28,19,0,0.00
2013-9-9,65.0,61.9,60.0,-99.9,-99.9,-99.9,0,0,100,30.08,30.04,11,4,0,0.00
2013-9-11,66.0,63.8,61.0,-99.9,-99.9,-99.9,0,0,100,29.94,29.91,11,7,0,0.00
2013-9-12,66.0,61.4,58.0,-99.9,-99.9,-99.9,0,0,100,30.20,29.95,23,16,0,0.00
2013-9-13,64.0,55.8,45.0,-99.9,-99.9,-99.9,0,0,100,30.27,30.12,7,4,0,0.00
2013-9-14,57.0,57.0,57.0,-99.9,-99.9,-99.9,0,0,100,30.07,30.07,13,13,0,0.00
2013-9-16,60.0,60.0,60.0,-99.9,-99.9,-99.9,0,0,100,30.32,30.32,11,10,0,0.00
2013-9-17,61.0,54.2,51.0,-99.9,-99.9,-99.9,0,0,100,30.33,30.32,15,12,0,0.00
2013-9-18,60.0,60.0,60.0,-99.9,-99.9,-99.9,0,0,100,30.09,30.09,22,19,0,0.00
2013-9-19,67.0,64.1,60.0,-99.9,-99.9,-99.9,0,0,100,29.75,29.69,16,10,0,0.00
2013-9-20,67.0,60.5,58.0,-99.9,-99.9,-99.9,0,0,100,29.81,29.67,18,9,0,0.00
2013-9-21,54.0,50.2,47.0,-99.9,-99.9,-99.9,0,0,100,29.84,29.81,25,19,0,0.00
2013-9-26,63.0,62.3,62.0,-99.9,-99.9,-99.9,0,0,100,30.09,30.07,14,8,0,0.00
2013-9-27,71.0,65.3,57.0,-99.9,-99.9,-99.9,0,0,100,30.22,30.11,17,14,0,0.00
2013-9-28,62.0,60.2,58.0,-99.9,-99.9,-99.9,0,0,100,30.07,30.00,23,19,0,0.00
2013-9-29,57.0,54.9,54.0,-99.9,-99.9,-99.9,0,0,100,29.97,29.91,15,13,0,0.00
2013-9-30,70.0,64.4,59.0,-99.9,-99.9,-99.9,0,0,100,30.02,29.94,14,7,0,0.00
2013-10-2,63.0,59.9,58.0,-99.9,-99.9,-99.9,0,0,100,29.99,29.80,26,21,0,0.00
2013-10-3,57.0,55.1,53.0,-99.9,-99.9,-99.9,0,0,100,29.99,29.95,18,6,0,0.00
2013-10-4,52.0,52.0,52.0,-99.9,-99.9,-99.9,0,0,100,30.15,30.14,29,26,0,0.00
2013-10-5,62.0,54.1,49.0,-99.9,-99.9,-99.9,0,0,100,30.17,29.89,26,16,0,0.00
2013-10-6,66.0,61.4,55.0,-99.9,-99.9,-99.9,0,0,100,29.74,29.70,22,18,0,0.00
2013-10-7,59.0,53.1,49.0,-99.9,-99.9,-99.9,0,0,100,29.87,29.69,32,22,0,0.00
2013-10-8,63.0,55.4,45.0,-99.9,-99.9,-99.9,0,0,100,30.12,29.96,30,19,0,0.00
2013-10-9,69.0,61.2,56.0,-99.9,-99.9,-99.9,0,0,100,30.20,29.95,28,13,0,0.00
2013-10-10,60.0,60.0,60.0,-99.9,-99.9,-99.9,0,0,100,30.24,30.24,6,6,0,0.00
2013-10-11,65.0,61.8,57.0,-99.9,-99.9,-99.9,0,0,100,30.15,30.06,23,10,0,0.00
2013-10-12,73.0,59.4,50.0,-99.9,-99.9,-99.9,0,0,100,30.14,30.05,17,6,0,0.00
2013-10-13,64.0,62.5,61.0,-99.9,-99.9,-99.9,0,0,100,30.09,30.09,15,12,0,0.00
2013-10-14,50.0,49.4,49.0,-99.9,-99.9,-99.9,0,0,100,30.41,30.27,16,5,0,0.00
2013-10-15,51.0,49.2,48.0,-99.9,-99.9,-99.9,0,0,100,30.08,29.75,37,30,0,0.00
2013-10-16,50.0,46.2,44.0,-99.9,-99.9,-99.9,0,0,100,29.92,29.84,25,10,0,0.00
2013-10-17,49.0,47.1,45.0,-99.9,-99.9,-99.9,0,0,100,29.81,29.75,15,6,0,0.00
2013-10-18,61.0,54.4,46.0,-99.9,-99.9,-99.9,0,0,100,29.85,29.73,18,15,0,0.00
2013-10-19,50.0,45.3,43.0,-99.9,-99.9,-99.9,0,0,100,29.91,29.75,21,12,0,0.00
2013-10-20,48.0,45.1,43.0,-99.9,-99.9,-99.9,0,0,100,29.82,29.74,51,21,0,0.00
2013-10-22,44.0,44.0,44.0,-99.9,-99.9,-99.9,0,0,100,29.74,29.72,34,34,0,0.00
2013-10-23,47.0,41.7,36.0,-99.9,-99.9,-99.9,0,0,100,29.88,29.80,16,10,0,0.00
2013-10-24,44.0,38.6,34.0,-99.9,-99.9,-99.9,0,0,100,29.98,29.83,29,22,0,0.00
2013-10-25,42.0,39.3,36.0,-99.9,-99.9,-99.9,0,0,100,30.13,30.03,30,16,0,0.00
2013-10-26,41.0,40.0,39.0,-99.9,-99.9,-99.9,0,0,100,29.90,29.68,23,13,0,0.00
2013-10-27,42.0,40.6,37.0,-99.9,-99.9,-99.9,0,0,100,29.89,29.83,23,13,0,0.00
2013-10-28,51.0,46.5,45.0,-99.9,-99.9,-99.9,0,0,100,30.32,30.15,28,18,0,0.00
2013-10-29,43.0,40.8,38.0,-99.9,-99.9,-99.9,0,0,100,30.43,30.32,17,8,0,0.00
2013-10-30,47.0,39.6,36.0,-99.9,-99.9,-99.9,0,0,100,30.20,29.96,17,10,0,0.00
2013-10-31,51.0,50.8,50.0,-99.9,-99.9,-99.9,0,0,100,29.40,29.26,15,9,0,0.00
2013-11-1,52.0,47.9,45.0,-99.9,-99.9,-99.9,0,0,100,29.56,28.87,43,20,0,0.00
2013-11-2,48.0,45.8,44.0,-99.9,-99.9,-99.9,0,0,100,29.96,29.68,15,11,0,0.00
2013-11-3,40.0,38.4,37.0,-99.9,-99.9,-99.9,0,0,100,30.39,30.09,21,13,0,0.00
2013-11-4,49.0,43.8,37.0,-99.9,-99.9,-99.9,0,0,100,30.40,29.97,34,25,0,0.00
2013-11-5,54.0,49.3,45.0,-99.9,-99.9,-99.9,0,0,100,30.22,30.07,18,13,0,0.00
2013-11-6,58.0,55.4,53.0,-99.9,-99.9,-99.9,0,0,100,30.03,29.84,28,16,0,0.00
2013-11-7,40.0,38.8,37.0,-99.9,-99.9,-99.9,0,0,100,30.01,29.94,31,26,0,0.00
2013-11-8,39.0,36.2,34.0,-99.9,-99.9,-99.9,0,0,100,30.16,30.00,21,9,0,0.00
2013-11-9,40.0,36.6,34.0,-99.9,-99.9,-99.9,0,0,100,30.04,29.55,36,23,0,0.00
2013-11-10,42.0,38.1,35.0,-99.9,-99.9,-99.9,0,0,100,30.25,29.97,32,18,0,0.00
2013-11-11,29.0,23.6,20.0,-99.9,-99.9,-99.9,0,0,100,30.50,30.10,18,4,0,0.00
2013-11-13,42.0,39.1,36.0,-99.9,-99.9,-99.9,0,0,100,30.15,29.81,44,36,0,0.00
2013-11-14,43.0,42.4,41.0,-99.9,-99.9,-99.9,0,0,100,29.83,29.80,37,30,0,0.00
2013-11-15,48.0,44.6,41.0,-99.9,-99.9,-99.9,0,0,100,29.99,29.86,32,21,0,0.00
2013-11-16,50.0,46.9,44.0,-99.9,-99.9,-99.9,0,0,100,29.93,29.66,32,25,0,0.00
2013-11-17,53.0,49.6,44.0,-99.9,-99.9,-99.9,0,0,100,29.54,29.17,25,16,0,0.00
2013-11-18,35.0,30.0,27.0,-99.9,-99.9,-99.9,0,0,100,30.03,29.36,37,26,0,0.00
2013-11-19,35.0,29.3,25.0,-99.9,-99.9,-99.9,0,0,100,30.34,30.20,20,11,0,0.00
2013-11-20,40.0,35.9,32.0,-99.9,-99.9,-99.9,0,0,100,30.35,30.22,32,25,0,0.00
2013-11-21,46.0,44.1,42.0,-99.9,-99.9,-99.9,0,0,100,30.29,30.22,21,12,0,0.00
2013-11-22,44.0,39.6,31.0,-99.9,-99.9,-99.9,0,0,100,30.24,30.09,41,19,0,0.00
2013-11-23,27.0,18.9,14.0,-99.9,-99.9,-99.9,0,0,100,30.39,30.11,45,35,0,0.00
2013-11-24,20.0,18.0,14.0,-99.9,-99.9,-99.9,0,0,100,30.41,30.10,32,27,0,0.00
2013-11-25,34.0,33.4,33.0,-99.9,-99.9,-99.9,0,0,100,29.76,29.68,43,33,0,0.00
2013-12-8,6.0,1.8,-3.0,-99.9,-99.9,-99.9,0,0,100,30.39,30.17,2,1,0,0.00
2013-12-9,12.0,5.6,-1.0,-99.9,-99.9,-99.9,0,0,100,30.02,29.89,17,8,0,0.00
2013-12-10,4.0,-1.2,-5.0,-99.9,-99.9,-99.9,0,0,100,30.02,29.83,18,6,0,0.00
2013-12-11,-1.0,-7.3,-13.0,-99.9,-99.9,-99.9,0,0,100,30.44,30.20,9,6,0,0.00
2013-12-12,11.0,1.7,-7.0,-99.9,-99.9,-99.9,0,0,100,30.26,30.16,20,8,0,0.00
2013-12-13,8.0,6.5,5.0,-99.9,-99.9,-99.9,0,0,100,30.34,30.33,14,12,0,0.00
2013-12-15,15.0,15.0,15.0,-99.9,-99.9,-99.9,0,0,100,30.00,30.00,24,24,0,0.00
2013-12-16,14.0,12.4,12.0,-99.9,-99.9,-99.9,0,0,100,30.03,30.02,21,17,0,0.00
2013-12-18,21.0,12.9,5.0,-99.9,-99.9,-99.9,0,0,100,29.97,29.66,13,7,0,0.00
2013-12-19,17.0,13.0,7.0,-99.9,-99.9,-99.9,0,0,100,30.17,29.78,9,4,0,0.00
2013-12-20,21.0,16.7,12.0,-99.9,-99.9,-99.9,0,0,100,30.15,29.96,17,8,0,0.00
2013-12-21,24.0,19.6,17.0,-99.9,-99.9,-99.9,0,0,100,29.99,29.86,16,9,0,0.00
2013-12-22,30.0,27.8,26.0,-99.9,-99.9,-99.9,0,0,100,29.79,29.66,28,21,0,0.00
2013-12-23,26.0,21.6,14.0,-99.9,-99.9,-99.9,0,0,100,30.32,30.10,25,15,0,0.00
2013-12-24,15.0,14.0,13.0,-99.9,-99.9,-99.9,0,0,100,30.42,30.36,24,17,0,0.00
2013-12-26,22.0,20.0,18.0,-99.9,-99.9,-99.9,0,0,100,30.28,30.25,13,12,0,0.00
2013-12-27,27.0,22.9,19.0,-99.9,-99.9,-99.9,0,0,100,30.20,29.84,25,17,0,0.00
2013-12-28,37.0,31.0,29.0,-99.9,-99.9,-99.9,0,0,100,29.96,29.79,21,10,0,0.00
2013-12-29,39.0,33.3,23.0,-99.9,-99.9,-99.9,0,0,100,29.99,29.75,30,17,0,0.00
2013-12-30,12.0,5.7,1.0,-99.9,-99.9,-99.9,0,0,100,30.20,30.10,28,18,0,0.00
2013-12-31,11.0,5.6,2.0,-99.9,-99.9,-99.9,0,0,100,30.13,29.89,32,14,0,0.00
2014-1-1,-7.0,-8.9,-10.0,-99.9,-99.9,-99.9,0,0,100,30.42,30.40,25,14,0,0.00
2014-1-2,2.0,-3.7,-9.0,-99.9,-99.9,-99.9,0,0,100,30.45,30.42,20,15,0,0.00